CSN3486 ZUCK-ZGGG

Flight info

Callsign CSN3486
Flight time N/A
Altitude 41100
Route VILUS6Y VILUS W180 LIDMA W182 LAGEX G586 SJG B330 GYA GYA7
Aircraft A359/H-SADE2E3FGHIJ1J2J3J4J5LM1OP2RVWYZ/LB1D1

Departure

Time 2026-05-09 08:35
Airport Chongqing Jiangbei International Airport (ZUCK)

Arrival

Time N/A
Airport Guangzhou Baiyun International Airport (ZGGG)
Time Latitude Longitude Altitude Speed Heading
2026-05-09 08:14 29.71432 106.64957 1360 ft 0 kts 102°
2026-05-09 08:22 29.71433 106.64952 1360 ft 3 kts 102°
2026-05-09 08:22 29.71438 106.64926 1395 ft 3 kts 102°
2026-05-09 08:23 29.71443 106.64902 1359 ft 2 kts 102°
2026-05-09 08:23 29.71446 106.64880 1360 ft 3 kts 84°
2026-05-09 08:23 29.71443 106.64862 1359 ft 4 kts 49°
2026-05-09 08:23 29.71431 106.64850 1359 ft 4 kts 15°
2026-05-09 08:24 29.71409 106.64845 1360 ft 4 kts 11°
2026-05-09 08:24 29.71395 106.64842 1361 ft 2 kts 15°
2026-05-09 08:28 29.71417 106.64849 1364 ft 8 kts 15°
2026-05-09 08:28 29.71489 106.64864 1362 ft 12 kts
2026-05-09 08:28 29.71578 106.64866 1363 ft 12 kts
2026-05-09 08:28 29.71651 106.64851 1363 ft 9 kts 323°
2026-05-09 08:29 29.71678 106.64783 1363 ft 10 kts 282°
2026-05-09 08:29 29.71712 106.64712 1362 ft 10 kts 341°
2026-05-09 08:29 29.71790 106.64727 1363 ft 14 kts 17°
2026-05-09 08:29 29.71911 106.64769 1363 ft 23 kts 16°
2026-05-09 08:30 29.72094 106.64831 1363 ft 30 kts 17°
2026-05-09 08:30 29.72300 106.64902 1363 ft 32 kts 16°
2026-05-09 08:30 29.72512 106.64974 1363 ft 33 kts 17°
2026-05-09 08:30 29.72735 106.65050 1362 ft 34 kts 17°
2026-05-09 08:31 29.72940 106.65120 1362 ft 27 kts 17°
2026-05-09 08:31 29.73088 106.65171 1362 ft 19 kts 16°
2026-05-09 08:31 29.73195 106.65208 1363 ft 16 kts 17°
2026-05-09 08:31 29.73285 106.65239 1361 ft 10 kts 17°
2026-05-09 08:32 29.73344 106.65232 1361 ft 8 kts 321°
2026-05-09 08:32 29.73362 106.65198 1360 ft 0 kts 292°
2026-05-09 08:33 29.73367 106.65185 1361 ft 6 kts 292°
2026-05-09 08:33 29.73380 106.65137 1360 ft 0 kts 288°
2026-05-09 08:33 29.73384 106.65122 1361 ft 7 kts 285°
2026-05-09 08:34 29.73363 106.65072 1362 ft 8 kts 219°
2026-05-09 08:34 29.73321 106.65050 1362 ft 6 kts 198°
2026-05-09 08:34 29.73272 106.65032 1362 ft 8 kts 197°
2026-05-09 08:34 29.73148 106.64989 1363 ft 41 kts 197°
2026-05-09 08:35 29.72627 106.64809 1364 ft 113 kts 197°
2026-05-09 08:35 29.71674 106.64482 1440 ft 164 kts 197°
2026-05-09 08:35 29.70594 106.64097 2232 ft 162 kts 198°
2026-05-09 08:35 29.69512 106.63700 3011 ft 164 kts 199°
2026-05-09 08:36 29.68420 106.63307 3702 ft 165 kts 198°
2026-05-09 08:36 29.67315 106.62928 4388 ft 165 kts 197°
2026-05-09 08:36 29.66203 106.62561 4999 ft 174 kts 197°
2026-05-09 08:36 29.64954 106.62147 5320 ft 200 kts 197°
2026-05-09 08:37 29.63524 106.61664 5603 ft 230 kts 197°
2026-05-09 08:37 29.61898 106.61106 5995 ft 257 kts 198°
2026-05-09 08:37 29.60133 106.60500 6675 ft 271 kts 197°
2026-05-09 08:37 29.58292 106.59871 7521 ft 280 kts 197°
2026-05-09 08:38 29.56400 106.59216 8431 ft 288 kts 198°
2026-05-09 08:38 29.54468 106.58501 9365 ft 296 kts 198°
2026-05-09 08:38 29.52491 106.57753 10260 ft 304 kts 199°
2026-05-09 08:38 29.50416 106.56972 10763 ft 325 kts 199°
2026-05-09 08:39 29.48187 106.56135 11160 ft 347 kts 199°
2026-05-09 08:39 29.45790 106.55417 11683 ft 363 kts 189°
2026-05-09 08:39 29.43243 106.55453 12429 ft 372 kts 170°
2026-05-09 08:39 29.40830 106.56461 13180 ft 379 kts 150°
2026-05-09 08:40 29.38766 106.58380 13925 ft 385 kts 134°
2026-05-09 08:40 29.36957 106.60685 14538 ft 392 kts 131°
2026-05-09 08:40 29.35158 106.63058 15175 ft 396 kts 132°
2026-05-09 08:40 29.33333 106.65443 15819 ft 401 kts 132°
2026-05-09 08:41 29.31471 106.67854 16468 ft 406 kts 133°
2026-05-09 08:41 29.29590 106.70279 17108 ft 410 kts 133°
2026-05-09 08:41 29.27681 106.72730 17731 ft 414 kts 133°
2026-05-09 08:41 29.25746 106.75208 18379 ft 420 kts 134°
2026-05-09 08:42 29.23791 106.77711 18932 ft 424 kts 134°
2026-05-09 08:42 29.21809 106.80246 19477 ft 429 kts 134°
2026-05-09 08:42 29.19805 106.82805 20008 ft 434 kts 134°
2026-05-09 08:42 29.17775 106.85395 20577 ft 439 kts 135°
2026-05-09 08:43 29.15720 106.88017 21125 ft 444 kts 135°
2026-05-09 08:43 29.13611 106.90613 21680 ft 447 kts 139°
2026-05-09 08:43 29.11204 106.92851 22230 ft 446 kts 151°
2026-05-09 08:43 29.08502 106.94454 22769 ft 442 kts 164°
2026-05-09 08:44 29.05567 106.95383 23327 ft 436 kts 176°
2026-05-09 08:44 29.02555 106.95638 23880 ft 432 kts 186°
2026-05-09 08:44 28.99502 106.95605 24351 ft 435 kts 187°
2026-05-09 08:44 28.96507 106.95540 24898 ft 437 kts 187°
2026-05-09 08:45 28.93455 106.95484 25483 ft 440 kts 188°
2026-05-09 08:45 28.90384 106.95436 26019 ft 443 kts 188°
2026-05-09 08:45 28.87288 106.95390 26575 ft 445 kts 188°
2026-05-09 08:45 28.84176 106.95349 27071 ft 449 kts 188°
2026-05-09 08:46 28.81041 106.95312 27566 ft 450 kts 188°
2026-05-09 08:46 28.77903 106.95278 28061 ft 453 kts 189°
2026-05-09 08:46 28.74730 106.95237 28529 ft 458 kts 189°
2026-05-09 08:46 28.71526 106.95197 29071 ft 461 kts 189°
2026-05-09 08:47 28.68310 106.95160 29630 ft 463 kts 189°
2026-05-09 08:47 28.65072 106.95121 30132 ft 467 kts 189°
2026-05-09 08:47 28.62914 106.95098 30318 ft 469 kts 189°
2026-05-09 08:47 28.59641 106.95057 30731 ft 472 kts 190°
2026-05-09 08:48 28.56349 106.95017 31086 ft 474 kts 190°
2026-05-09 08:48 28.53046 106.94977 31415 ft 476 kts 190°
2026-05-09 08:48 28.49734 106.94934 31814 ft 478 kts 190°
2026-05-09 08:48 28.46402 106.94892 32237 ft 480 kts 191°
2026-05-09 08:49 28.43062 106.94851 32614 ft 481 kts 191°
2026-05-09 08:49 28.39707 106.94811 32940 ft 483 kts 191°
2026-05-09 08:49 28.36333 106.94770 33277 ft 486 kts 191°
2026-05-09 08:49 28.32940 106.94731 33641 ft 488 kts 191°
2026-05-09 08:50 28.29540 106.94691 34005 ft 489 kts 191°
2026-05-09 08:50 28.26146 106.94654 34398 ft 488 kts 191°
2026-05-09 08:50 28.22752 106.94623 34817 ft 488 kts 191°
2026-05-09 08:50 28.19344 106.94711 35226 ft 490 kts 188°
2026-05-09 08:51 28.15925 106.94910 35589 ft 492 kts 187°
2026-05-09 08:51 28.12554 106.95147 35943 ft 493 kts 187°
2026-05-09 08:51 28.09125 106.95392 36256 ft 494 kts 187°
2026-05-09 08:51 28.05681 106.95623 36543 ft 495 kts 187°
2026-05-09 08:52 28.01090 106.95910 37090 ft 492 kts 188°
2026-05-09 08:52 27.98828 106.96039 37395 ft 490 kts 188°
2026-05-09 08:52 27.95424 106.96222 37752 ft 490 kts 188°
2026-05-09 08:52 27.92018 106.96396 38051 ft 491 kts 188°
2026-05-09 08:53 27.88609 106.96568 38389 ft 490 kts 188°
2026-05-09 08:53 27.85203 106.96743 38737 ft 489 kts 188°
2026-05-09 08:53 27.81803 106.96919 39015 ft 489 kts 188°
2026-05-09 08:53 27.78409 106.97097 39297 ft 488 kts 188°
2026-05-09 08:54 27.75022 106.97276 39583 ft 487 kts 188°
2026-05-09 08:54 27.71634 106.97455 39861 ft 487 kts 188°
2026-05-09 08:54 27.68252 106.97632 40052 ft 487 kts 188°
2026-05-09 08:54 27.64864 106.97809 40289 ft 486 kts 188°
2026-05-09 08:55 27.61487 106.97987 40538 ft 486 kts 188°
2026-05-09 08:55 27.58112 106.98164 40775 ft 485 kts 188°
2026-05-09 08:55 27.54741 106.98341 41001 ft 485 kts 188°
2026-05-09 08:55 27.51376 106.98517 41205 ft 485 kts 187°
2026-05-09 08:56 27.48008 106.98693 41240 ft 484 kts 187°
2026-05-09 08:56 27.41271 106.99059 41243 ft 484 kts 187°
2026-05-09 08:57 27.34588 106.99418 41243 ft 484 kts 187°
2026-05-09 08:57 27.27857 106.99779 41253 ft 484 kts 187°
2026-05-09 08:58 27.21114 107.00142 41245 ft 484 kts 187°
2026-05-09 08:58 27.14384 107.00504 41251 ft 484 kts 187°
2026-05-09 08:59 27.07650 107.00867 41246 ft 484 kts 187°
2026-05-09 08:59 27.00880 107.01892 41253 ft 503 kts 174°
2026-05-09 08:59 26.97549 107.03259 41250 ft 517 kts 163°
2026-05-09 09:00 26.94405 107.05304 41255 ft 531 kts 152°
2026-05-09 09:00 26.91577 107.08034 41257 ft 544 kts 140°
2026-05-09 09:00 26.89207 107.11388 41251 ft 555 kts 127°
2026-05-09 09:00 26.87425 107.15255 41252 ft 563 kts 114°
2026-05-09 09:01 26.86330 107.19471 41249 ft 568 kts 101°
2026-05-09 09:01 26.85976 107.23815 41248 ft 569 kts 88°
2026-05-09 09:01 26.85890 107.28242 41250 ft 570 kts 96°
2026-05-09 09:02 26.84355 107.36926 41246 ft 568 kts 106°
2026-05-09 09:02 26.82280 107.45464 41233 ft 568 kts 108°
2026-05-09 09:03 26.80071 107.53958 41237 ft 568 kts 108°
2026-05-09 09:03 26.77852 107.62458 41234 ft 569 kts 108°
2026-05-09 09:04 26.75649 107.70948 41223 ft 568 kts 108°
2026-05-09 09:04 26.73444 107.79435 41222 ft 568 kts 108°
2026-05-09 09:05 26.71237 107.87912 41223 ft 568 kts 108°
2026-05-09 09:05 26.69021 107.96404 41218 ft 568 kts 108°
2026-05-09 09:06 26.66802 108.04885 41222 ft 568 kts 108°
2026-05-09 09:06 26.64579 108.13355 41217 ft 567 kts 108°
2026-05-09 09:07 26.62355 108.21804 41211 ft 566 kts 108°
2026-05-09 09:07 26.60141 108.30195 41211 ft 567 kts 108°
2026-05-09 09:08 26.57910 108.38646 41206 ft 567 kts 108°
2026-05-09 09:08 26.55879 108.47161 41204 ft 567 kts 105°
2026-05-09 09:09 26.53962 108.55707 41199 ft 568 kts 105°
2026-05-09 09:09 26.52014 108.64245 41203 ft 568 kts 106°
2026-05-09 09:10 26.50031 108.72759 41191 ft 566 kts 106°
2026-05-09 09:10 26.48037 108.81257 41191 ft 566 kts 106°
2026-05-09 09:11 26.46037 108.89749 41192 ft 566 kts 106°
2026-05-09 09:11 26.43789 108.98144 41187 ft 563 kts 116°
2026-05-09 09:11 26.41987 109.01990 41182 ft 556 kts 127°
2026-05-09 09:12 26.39627 109.05370 41181 ft 547 kts 139°
2026-05-09 09:12 26.33984 109.10942 41183 ft 541 kts 147°
2026-05-09 09:13 26.28098 109.16153 41174 ft 540 kts 148°
2026-05-09 09:13 26.22243 109.21298 41180 ft 540 kts 148°
2026-05-09 09:14 26.16374 109.26514 41174 ft 540 kts 148°
2026-05-09 09:14 26.10508 109.31755 41173 ft 540 kts 147°
2026-05-09 09:15 26.04651 109.36987 41174 ft 540 kts 147°
2026-05-09 09:15 25.98784 109.42218 41167 ft 541 kts 147°
2026-05-09 09:16 25.92912 109.47448 41159 ft 540 kts 147°
2026-05-09 09:16 25.84144 109.55242 41155 ft 540 kts 147°
2026-05-09 09:17 25.78289 109.60483 41154 ft 543 kts 144°
2026-05-09 09:17 25.72730 109.66188 41154 ft 545 kts 142°
2026-05-09 09:18 25.67235 109.71997 41156 ft 546 kts 141°
2026-05-09 09:18 25.61756 109.77811 41155 ft 545 kts 141°
2026-05-09 09:19 25.56262 109.83616 41156 ft 546 kts 141°
2026-05-09 09:19 25.50753 109.89429 41141 ft 546 kts 141°
2026-05-09 09:20 25.45230 109.95247 41135 ft 547 kts 141°
2026-05-09 09:20 25.39718 110.01039 41124 ft 546 kts 141°
2026-05-09 09:21 25.34208 110.06824 41121 ft 546 kts 141°
2026-05-09 09:21 25.28697 110.12602 41116 ft 546 kts 141°
2026-05-09 09:22 25.23182 110.18376 41122 ft 546 kts 141°
2026-05-09 09:22 25.17719 110.24107 41126 ft 546 kts 141°
2026-05-09 09:23 25.12239 110.29912 41130 ft 545 kts 140°
2026-05-09 09:23 25.06763 110.35712 41135 ft 545 kts 140°
2026-05-09 09:24 25.01290 110.41496 41136 ft 545 kts 140°
2026-05-09 09:24 24.95820 110.47285 41134 ft 545 kts 140°
2026-05-09 09:25 24.90345 110.53068 41133 ft 545 kts 140°
2026-05-09 09:25 24.84869 110.58847 41134 ft 544 kts 140°
2026-05-09 09:26 24.79400 110.64611 41136 ft 544 kts 140°
2026-05-09 09:26 24.73931 110.70367 41137 ft 544 kts 140°
2026-05-09 09:27 24.68502 110.76077 41139 ft 543 kts 140°
2026-05-09 09:27 24.63064 110.81836 41131 ft 543 kts 139°
2026-05-09 09:28 24.57681 110.87657 41135 ft 543 kts 139°
2026-05-09 09:28 24.52306 110.93470 41132 ft 542 kts 139°
2026-05-09 09:29 24.46922 110.99265 41128 ft 541 kts 139°
2026-05-09 09:29 24.41543 111.05039 41134 ft 541 kts 139°
2026-05-09 09:30 24.36159 111.10807 41137 ft 541 kts 139°
2026-05-09 09:30 24.30774 111.16566 41124 ft 540 kts 139°
2026-05-09 09:31 24.25455 111.22250 41134 ft 540 kts 139°
2026-05-09 09:32 24.16595 111.29512 41121 ft 529 kts 156°
2026-05-09 09:32 24.10080 111.33241 41125 ft 528 kts 158°
2026-05-09 09:33 24.03521 111.36848 41118 ft 528 kts 158°
2026-05-09 09:33 23.96960 111.40470 41113 ft 528 kts 158°
2026-05-09 09:34 23.90420 111.44107 41114 ft 528 kts 158°
2026-05-09 09:34 23.83874 111.47753 41110 ft 528 kts 158°
2026-05-09 09:36 23.62198 111.59795 40313 ft 529 kts 158°
2026-05-09 09:36 23.58919 111.61613 39937 ft 528 kts 158°
2026-05-09 09:36 23.55645 111.63428 39349 ft 528 kts 158°
2026-05-09 09:37 23.52372 111.65239 38714 ft 529 kts 158°
2026-05-09 09:37 23.49078 111.67060 37982 ft 531 kts 158°
2026-05-09 09:37 23.45788 111.68879 37293 ft 531 kts 158°
2026-05-09 09:37 23.42494 111.70700 36577 ft 531 kts 157°
2026-05-09 09:38 23.39194 111.72525 35831 ft 533 kts 157°
2026-05-09 09:38 23.36956 111.73761 35331 ft 534 kts 157°
2026-05-09 09:38 23.33636 111.75594 34539 ft 536 kts 157°
2026-05-09 09:38 23.30302 111.77433 33712 ft 538 kts 157°
2026-05-09 09:39 23.27009 111.79264 32844 ft 539 kts 156°
2026-05-09 09:39 23.23908 111.81573 32021 ft 544 kts 142°
2026-05-09 09:39 23.21351 111.84614 31232 ft 548 kts 127°
2026-05-09 09:39 23.19507 111.88229 30432 ft 550 kts 114°
2026-05-09 09:40 23.18445 111.92217 29584 ft 549 kts 102°
2026-05-09 09:40 23.17731 111.96270 28653 ft 538 kts 102°
2026-05-09 09:40 23.17034 112.00170 27855 ft 512 kts 103°
2026-05-09 09:40 23.16327 112.03896 27195 ft 499 kts 103°
2026-05-09 09:41 23.15599 112.07575 26561 ft 496 kts 104°
2026-05-09 09:41 23.14858 112.11221 25930 ft 493 kts 104°
2026-05-09 09:41 23.14112 112.14843 25302 ft 490 kts 104°
2026-05-09 09:41 23.13363 112.18446 24669 ft 487 kts 104°
2026-05-09 09:42 23.12615 112.22024 24045 ft 485 kts 104°
2026-05-09 09:42 23.11868 112.25586 23389 ft 481 kts 104°
2026-05-09 09:42 23.11125 112.29116 22688 ft 477 kts 104°
2026-05-09 09:42 23.10390 112.32609 22044 ft 472 kts 104°
2026-05-09 09:43 23.09660 112.36074 21406 ft 467 kts 104°
2026-05-09 09:43 23.08939 112.39488 20768 ft 462 kts 104°
2026-05-09 09:43 23.08224 112.42868 20140 ft 457 kts 104°
2026-05-09 09:43 23.07480 112.46211 19486 ft 453 kts 108°
2026-05-09 09:44 23.06232 112.49305 18879 ft 444 kts 124°
2026-05-09 09:44 23.04330 112.51906 18267 ft 437 kts 135°
2026-05-09 09:44 23.02255 112.54282 17599 ft 432 kts 136°
2026-05-09 09:44 23.00205 112.56604 16990 ft 427 kts 135°
2026-05-09 09:45 22.98165 112.58931 16362 ft 423 kts 135°
2026-05-09 09:45 22.96150 112.61244 15774 ft 420 kts 135°
2026-05-09 09:45 22.94313 112.63692 15165 ft 418 kts 123°
2026-05-09 09:45 22.93187 112.66576 14551 ft 415 kts 104°
2026-05-09 09:46 22.92716 112.69650 13946 ft 412 kts 97°
2026-05-09 09:46 22.92381 112.72720 13287 ft 407 kts 96°
2026-05-09 09:46 22.92048 112.75746 12667 ft 402 kts 97°
2026-05-09 09:46 22.91705 112.78740 12068 ft 398 kts 97°
2026-05-09 09:47 22.91354 112.81705 11465 ft 394 kts 97°
2026-05-09 09:47 22.91003 112.84627 11094 ft 383 kts 97°
2026-05-09 09:47 22.90663 112.87426 10963 ft 365 kts 97°
2026-05-09 09:47 22.90338 112.90096 10843 ft 349 kts 97°
2026-05-09 09:48 22.90026 112.92646 10707 ft 334 kts 97°
2026-05-09 09:48 22.89725 112.95095 10567 ft 321 kts 97°
2026-05-09 09:48 22.89435 112.97450 10416 ft 309 kts 97°
2026-05-09 09:48 22.89154 112.99732 10184 ft 304 kts 97°
2026-05-09 09:49 22.88875 113.01998 9851 ft 303 kts 97°
2026-05-09 09:49 22.88593 113.04277 9501 ft 305 kts 97°
2026-05-09 09:49 22.88316 113.06522 9249 ft 301 kts 97°
2026-05-09 09:49 22.88039 113.08754 9106 ft 289 kts 97°
2026-05-09 09:50 22.87782 113.10826 8958 ft 266 kts 97°
2026-05-09 09:50 22.87640 113.12732 8777 ft 253 kts 86°
2026-05-09 09:50 22.88186 113.14494 8636 ft 246 kts 51°
2026-05-09 09:50 22.89379 113.15793 8494 ft 243 kts 38°
2026-05-09 09:51 22.90691 113.16944 8280 ft 243 kts 37°
2026-05-09 09:51 22.92011 113.18086 8053 ft 242 kts 37°
2026-05-09 09:51 22.93436 113.19029 7831 ft 239 kts 19°
2026-05-09 09:51 22.95021 113.19550 7562 ft 237 kts 12°
2026-05-09 09:52 22.96625 113.19965 7278 ft 236 kts 11°
2026-05-09 09:52 22.98223 113.20373 7014 ft 235 kts 11°
2026-05-09 09:52 22.99806 113.20791 6816 ft 234 kts 12°
2026-05-09 09:52 23.01393 113.21212 6509 ft 236 kts 12°
2026-05-09 09:53 23.02990 113.21633 6214 ft 237 kts 12°
2026-05-09 09:53 23.04589 113.22060 5920 ft 236 kts 13°
2026-05-09 09:53 23.06173 113.22485 5734 ft 231 kts 12°
2026-05-09 09:53 23.07707 113.22894 5623 ft 223 kts 13°
2026-05-09 09:54 23.09188 113.23272 5468 ft 212 kts 12°
2026-05-09 09:54 23.10607 113.23639 5269 ft 208 kts 13°
2026-05-09 09:54 23.11999 113.24019 5037 ft 205 kts 13°
2026-05-09 09:54 23.13365 113.24390 4760 ft 205 kts 13°
2026-05-09 09:55 23.14763 113.24767 4437 ft 204 kts 13°
2026-05-09 09:55 23.16135 113.25137 4148 ft 203 kts 14°
2026-05-09 09:55 23.17480 113.25501 3875 ft 200 kts 14°
2026-05-09 09:55 23.18822 113.25863 3617 ft 198 kts 14°
2026-05-09 09:56 23.20149 113.26222 3368 ft 195 kts 15°
2026-05-09 09:56 23.21458 113.26577 3116 ft 193 kts 15°
2026-05-09 09:56 23.22760 113.26929 2869 ft 192 kts 14°
2026-05-09 09:56 23.24055 113.27279 2621 ft 191 kts 15°
2026-05-09 09:57 23.25334 113.27625 2370 ft 186 kts 15°
2026-05-09 09:57 23.26545 113.27953 2126 ft 174 kts 15°
2026-05-09 09:57 23.27689 113.28263 1923 ft 166 kts 15°
2026-05-09 09:57 23.28066 113.28365 1849 ft 165 kts 15°